RAINCUBE (43548 NORAD) Tracking and Keplerian Element Data

This shows tracking and keplerian element data for the satellite.

Feedback or suggestion? Click here.




ElementValue
Catalog43548
NameRAINCUBE
Epoch Orbit1891
Epoch Day315.67565898
Epoch Year2018
RAAN2.3413
Inclination51.6399
Eccentricity0.0006534
Argument of Perigee36.469
Mean Anonmoly323.6745
Mean Motion15.56583204
Decay Rate0.00010712
L11 43548U 98067NW 18315.67565898 .00010712 00000-0 15437-3 0 9990
L22 43548 51.6399 2.3413 0006534 36.4690 323.6745 15.56583204 18916

Live tracking and technical data element details for RAINCUBE (NORAD 43548). RAINCUBE can be tracked NOW for your location showing map with azimuth and elevation plus other details from your city location.

Track the satellite on the map from your city or location and see movement details for azimuth, elevation, latitude, longitude, range, height, and movement on the map or in text.







IsCatalogInMostPopularTable: catalog: 43548, numindb: 46
Update: records affected: 1



GetName: 43548 RAINCUBE

Hit Count: updated at: Tue, 13 Nov 2018 06:25:43 GMT